Flag for Germany Weather past 2 weeks in Hameln, Lower Saxony, Germany

Now
45 °F

Passing clouds.


Feels Like: 39 °F
Forecast: 38 / 46 °F
Wind: 12 mph from Southwest

Location: Bueckeburg

Current Time: Mar 1, 2015 at 8:51:10 PM

Latest Report: Mar 1, 2015 at 8:20 PM


Visibility: N/A

Pressure: 29.56 "Hg

Humidity: 71%

Dew point: 36 °F

Location of HamelnLocation

Historic Weather in Hameln — Graph

°F

Hameln temperature yesterday

Maximum temperature yesterday: 46 °F (at 4:20 PM)
Minimum temperature yesterday: 30 °F (at 4:20 AM)
Average temperature yesterday: 38 °F

Past Weeks' High & Low Weather Summary

 TemperatureHumidityPressure
High50 °F (Mar 1, 1:20 PM)100% (Feb 15, 3:20 AM)30.74 "Hg (Feb 15, 3:20 AM)
Low27 °F (Feb 16, 7:20 AM)46% (Feb 28, 3:20 PM)29.30 "Hg (Feb 21, 6:20 AM)
Average39 °F80%29.95 "Hg
* Reported Feb 14 7:20 PM — Mar 1 7:20 PM, Hameln, Weather by CustomWeather, © 2015

Note: Actual official high and low records may vary slightly from our data, if they occured in-between our weather recording intervals... More about our weather records

Advertising

Hameln weather history for previous 24 hours

 ConditionsComfort  
Time TempWeatherWind HumidityBarometerVisibility
7:20 PM
Sun, Mar 1
45 °FQuite cool.10 mph71%29.56 "HgN/A
6:20 PM45 °FQuite cool.12 mph71%29.56 "HgN/A
5:20 PM48 °FCool.17 mph62%29.53 "Hg6 mi
4:20 PM48 °FCool.17 mph66%29.53 "Hg6 mi
3:20 PM50 °FCool.20 mph62%29.53 "Hg6 mi
2:20 PM48 °FCool.20 mph71%29.53 "Hg5 mi
1:20 PM50 °FCool.22 mph71%29.50 "Hg5 mi
12:20 PM48 °FCool.17 mph76%29.53 "Hg4 mi
11:20 AM45 °FQuite cool.16 mph87%29.53 "Hg3 mi
10:20 AM45 °FQuite cool.14 mph87%29.53 "Hg2 mi
9:20 AM43 °FQuite cool.17 mph87%29.50 "Hg6 mi
8:20 AM39 °FChilly.21 mph93%29.50 "Hg2 mi
7:20 AM39 °FChilly.18 mph87%29.50 "Hg1 mi
6:20 AM39 °FChilly.18 mph81%29.53 "Hg6 mi
5:20 AM39 °FChilly.18 mph75%29.56 "Hg4 mi
4:20 AM41 °FQuite cool.20 mph61%29.59 "Hg5 mi
3:20 AM41 °FQuite cool.17 mph61%29.62 "HgN/A
2:20 AM41 °FQuite cool.15 mph61%29.68 "HgN/A
1:20 AMN/A16 mphN/AN/AN/A
12:20 AM39 °FChilly.17 mph61%29.77 "HgN/A
11:20 PM
Sat, Feb 28
39 °FChilly.14 mph61%29.80 "HgN/A
10:20 PM39 °FChilly.15 mph61%29.83 "HgN/A
9:20 PM39 °FChilly.14 mph65%29.89 "HgN/A
8:20 PM41 °FQuite cool.16 mph61%29.89 "HgN/A
Weather by CustomWeather, © 2015

See weather overviewHow to use our weather pages